Weather History for Clarksburg, WV

Change the Weather History Date:

Friday, March 1, 2013

  Actual Average Record
Temperature  
Mean Temperature 30 °F -  
Max Temperature 33 °F 46 °F 74 °F (1976)
Min Temperature 28 °F 23 °F -18 °F (1934)
Degree Days  
Heating Degree Days 34    
Moisture  
Dew Point 25 °F    
Average Humidity 79    
Maximum Humidity 87    
Minimum Humidity 69    
Precipitation  
Precipitation 0.00 in - - ()
Sea Level Pressure  
Sea Level Pressure 29.90 in    
Wind  
Wind Speed 6 mph (WNW)    
Max Wind Speed 10 mph    
Max Gust Speed -    
Visibility 7 miles    
Events Snow    
Averages and records for this station are not official NWS values.
T = Trace of Precipitation, MM = Missing Value Source: NWS Daily Summary

Daily Weather History Graph

Daily Weather History Graph

Search for Another Location

Airport:

Trip Planner

Search our weather history database for the weather conditions in past years. The results will help you decide how hot, cold, wet, or windy it might be!

Date:

Astronomy

Mar. 01, 2013 Rise Set
Actual Time 6:53 AM EST 6:13 PM EST
Civil Twilight 6:26 AM EST 6:40 PM EST
Nautical Twilight 5:55 AM EST 7:11 PM EST
Astronomical Twilight 5:24 AM EST 7:42 PM EST
Moon 10:43 PM EST (3/1) 8:40 AM EST (3/1)
Length of Visible Light 12h 14m
Length of Day
11h 20m
Waning Gibbous, 83% of the Moon is Illuminated
Mar 1
Waning Gibbous
Mar 4
Last Quarter
Mar 11
New
Mar 19
First Quarter
Mar 27
Full

Hourly Weather History & Observations

Time (EST) Temp. Windchill Dew Point Humidity Pressure Visibility Wind Dir Wind Speed Gust Speed Precip Events Conditions
12:33 AM 33.8 °F 29.6 °F 30.2 °F 87% 29.82 in 8.0 mi West 4.6 mph - 0.00 in   Overcast
12:41 AM 33.8 °F 28.6 °F 30.2 °F 87% 29.82 in 10.0 mi WNW 5.8 mph - 0.00 in   Overcast
1:53 AM 33.1 °F 27.7 °F 27.0 °F 78% 29.85 in 9.0 mi WNW 5.8 mph - 0.00 in   Overcast
3:53 AM 32.0 °F 26.4 °F 26.1 °F 79% 29.84 in 10.0 mi WNW 5.8 mph - N/A   Overcast
4:53 AM 32.0 °F 26.4 °F 26.1 °F 79% 29.85 in 10.0 mi WNW 5.8 mph - N/A   Overcast
5:53 AM 30.9 °F 26.2 °F 26.1 °F 82% 29.86 in 10.0 mi WNW 4.6 mph - N/A   Overcast
6:53 AM 30.9 °F 24.3 °F 26.1 °F 82% 29.87 in 6.0 mi NNW 6.9 mph - 0.00 in Snow Light Snow
7:40 AM 30.2 °F 23.4 °F 26.6 °F 86% 29.87 in 7.0 mi NW 6.9 mph - 0.00 in Snow Light Snow
7:53 AM 30.9 °F 26.2 °F 26.1 °F 82% 29.90 in 5.0 mi WNW 4.6 mph - 0.00 in Snow Light Snow
8:50 AM 30.2 °F 25.4 °F 26.6 °F 86% 29.89 in 3.0 mi NW 4.6 mph - 0.00 in Snow Light Snow
8:53 AM 30.9 °F 25.2 °F 26.1 °F 82% 29.91 in 3.0 mi WNW 5.8 mph - 0.00 in Snow Light Snow
9:07 AM 30.2 °F 24.3 °F 26.6 °F 86% 29.89 in 4.0 mi NW 5.8 mph - 0.00 in Snow Light Snow
9:27 AM 30.2 °F 24.3 °F 26.6 °F 86% 29.89 in 2.5 mi WNW 5.8 mph - 0.00 in Snow Light Snow
9:53 AM 30.9 °F 25.2 °F 27.0 °F 85% 29.90 in 6.0 mi WNW 5.8 mph - 0.00 in Snow Light Snow
10:23 AM 32.0 °F 25.6 °F 26.6 °F 80% 29.89 in 8.0 mi NW 6.9 mph - 0.00 in   Overcast
10:53 AM 32.0 °F 27.5 °F 26.1 °F 79% 29.91 in 10.0 mi WNW 4.6 mph - 0.00 in   Overcast
11:53 AM 32.0 °F 25.6 °F 25.0 °F 75% 29.92 in 7.0 mi NW 6.9 mph - 0.00 in Snow Light Snow
1:00 PM 32.0 °F 24.8 °F 24.8 °F 75% 29.89 in 7.0 mi West 8.1 mph - 0.00 in Snow Light Snow
1:37 PM 33.8 °F 27.0 °F 24.8 °F 70% 29.88 in 10.0 mi WNW 8.1 mph - 0.00 in   Overcast
1:53 PM 33.1 °F 26.9 °F 24.1 °F 70% 29.90 in 7.0 mi West 6.9 mph - 0.00 in Snow Light Snow
2:53 PM 33.1 °F 25.5 °F 25.0 °F 72% 29.89 in 7.0 mi WNW 9.2 mph - 0.00 in Snow Light Snow
3:53 PM 32.0 °F 23.6 °F 23.0 °F 69% 29.90 in 10.0 mi NW 10.4 mph - 0.00 in   Overcast
4:43 PM 30.2 °F 21.3 °F 24.8 °F 80% 29.89 in 1.8 mi WNW 10.4 mph - 0.00 in Snow Light Snow
4:53 PM 30.9 °F 23.5 °F 24.1 °F 76% 29.91 in 2.5 mi WNW 8.1 mph - 0.00 in Snow Light Snow
5:00 PM 30.2 °F 23.4 °F 24.8 °F 80% 29.90 in 4.0 mi NW 6.9 mph - 0.00 in Snow Light Snow
5:18 PM 30.2 °F 24.3 °F 23.0 °F 75% 29.90 in 5.0 mi NNW 5.8 mph - 0.00 in Snow Light Snow
5:53 PM 30.9 °F 27.5 °F 23.0 °F 72% 29.93 in 7.0 mi North 3.5 mph - 0.00 in Snow Light Snow
6:20 PM 30.2 °F 25.4 °F 21.2 °F 69% 29.91 in 4.0 mi NNW 4.6 mph - 0.00 in Snow Light Snow
6:53 PM 30.0 °F 25.2 °F 23.0 °F 75% 29.94 in 9.0 mi West 4.6 mph - 0.00 in   Overcast
7:10 PM 30.2 °F 22.6 °F 24.8 °F 80% 29.93 in 3.0 mi WNW 8.1 mph - 0.00 in Snow Light Snow
7:53 PM 28.9 °F 22.8 °F 23.0 °F 78% 29.96 in 5.0 mi WNW 5.8 mph - 0.00 in Snow Light Snow
9:53 PM 28.9 °F 23.9 °F 23.0 °F 78% 29.97 in 9.0 mi West 4.6 mph - N/A   Overcast
10:53 PM 28.9 °F 23.9 °F 23.0 °F 78% 29.96 in 9.0 mi West 4.6 mph - 0.00 in   Overcast
11:53 PM 28.9 °F 23.9 °F 23.0 °F 78% 29.95 in 4.0 mi NW 4.6 mph - 0.00 in Snow Light Snow